Location: Stanford
(52.2833°N, 2.4333°W)
Time: 20:05:19
(UTC+00:00)

ISS - Pass Details

Date: 22 January 2021
Orbit: 417 x 422 km, 51.6° (Epoch: 27 February)

Event Time Altitude Azimuth Distance (km) Brightness Sun altitude
Rises 19:15:09 0° 245° (WSW) 2,369 1.2 -23.4°
Reaches altitude 10° 19:17:15 10° 241° (WSW) 1,507 -0.1 -23.8°
Enters shadow 19:19:18 32° 225° (SW) 749 -2.2 -24.1°
